GW7002 Weather Reports


time (UTC)temp
F
wind
direction
speed
knots
gust
knots
rain 1hr
in
rain 24hr
in
rain mn
in
humidity
%
barometer
mb
20260505171523 51 95 0.0 7.0 0.00 0.00 0.00 59 1010.8
20260505171011 50 97 0.9 7.0 0.00 0.00 0.00 59 1010.7
20260505170508 51 130 1.7 6.1 0.00 0.00 0.00 60 1010.7
20260505170020 50 74 0.9 4.3 0.00 0.00 0.00 60 1010.7
20260505165507 50 121 1.7 7.0 0.00 0.00 0.00 60 1010.7
20260505165006 50 146 1.7 9.6 0.00 0.00 0.00 60 1010.6
20260505164514 51 129 1.7 12.2 0.00 0.00 0.00 60 1010.6
20260505164008 51 161 2.6 11.3 0.00 0.00 0.00 61 1010.5
20260505163509 51 90 1.7 7.0 0.00 0.00 0.00 62 1010.6
20260505163023 50 118 1.7 12.2 0.00 0.00 0.00 62 1010.7
20260505162508 51 155 2.6 12.2 0.00 0.00 0.00 63 1010.6
20260505162015 51 126 1.7 12.2 0.00 0.00 0.00 63 1010.6
20260505161528 51 120 2.6 12.2 0.00 0.00 0.00 64 1010.6
20260505161007 51 97 1.7 7.8 0.00 0.00 0.00 63 1010.5
20260505160510 50 103 1.7 7.8 0.00 0.00 0.00 64 1010.5
20260505153019 52 181 0.9 7.0 0.00 0.00 0.00 56 1010.0
20260505152507 52 119 0.9 4.3 0.00 0.00 0.00 55 1010.0
20260505152010 52 110 0.9 4.3 0.00 0.00 0.00 55 1009.9
20260505151518 52 106 0.0 4.3 0.00 0.00 0.00 55 1009.9
20260505151009 52 121 0.9 7.8 0.00 0.00 0.00 55 1010.0
20260505150510 52 92 0.9 9.6 0.00 0.00 0.00 54 1010.2
20260505140509 53 221 1.7 7.0 0.00 0.00 0.00 53 1009.6
20260505125015 53 137 0.0 3.5 0.00 0.00 0.00 62 1008.9
20260505124538 53 140 0.0 1.7 0.00 0.00 0.00 63 1008.8
20260505124012 53 113 0.0 1.7 0.00 0.00 0.00 65 1008.7
20260505123508 52 227 0.0 2.6 0.00 0.00 0.00 65 1008.6
20260505123008 52 158 0.0 2.6 0.00 0.00 0.00 65 1008.6
20260505122511 52 188 0.0 2.6 0.00 0.00 0.00 63 1008.5
20260505122012 52 187 0.9 2.6 0.00 0.00 0.00 62 1008.5
20260505121510 52 176 0.9 2.6 0.00 0.00 0.00 62 1008.6
20260505121005 52 221 0.0 2.6 0.00 0.00 0.00 61 1008.6
20260505120508 52 189 0.0 2.6 0.00 0.00 0.00 60 1008.7
20260505120023 52 147 0.0 2.6 0.00 0.00 0.00 60 1008.8
20260505115504 52 108 0.9 2.6 0.00 0.00 0.00 61 1008.8
20260505115004 52 111 0.9 2.6 0.00 0.00 0.00 62 1008.7
20260505114507 52 113 0.9 9.6 0.00 0.00 0.00 61 1008.6
20260505114004 52 142 0.9 9.6 0.00 0.00 0.00 62 1008.5
20260505113505 52 68 0.9 4.3 0.00 0.00 0.00 63 1008.5
20260505113013 52 184 0.9 4.3 0.00 0.00 0.00 63 1008.5
20260505112507 52 114 0.9 3.5 0.00 0.00 0.00 65 1008.5
20260505112005 52 279 0.9 3.5 0.00 0.00 0.00 67 1008.5
20260505111510 51 188 0.9 6.1 0.00 0.00 0.00 70 1008.5
20260505111006 52 198 0.9 7.8 0.00 0.00 0.00 69 1008.5
20260505110510 52 148 0.9 7.8 0.00 0.00 0.00 68 1008.5
20260505102008 54 225 0.0 1.7 0.00 0.00 0.00 61 1008.9
20260505101514 54 229 0.0 1.7 0.00 0.00 0.00 61 1008.9
20260505101002 54 231 0.0 1.7 0.00 0.00 0.00 60 1008.9
20260505100507 54 262 0.0 2.6 0.00 0.00 0.00 61 1008.9
20260505100031 54 279 0.0 2.6 0.00 0.00 0.00 61 1008.9
20260505095507 54 255 0.0 1.7 0.00 0.00 0.00 62 1009.0
20260505095005 54 251 0.0 1.7 0.00 0.00 0.00 63 1008.9
20260505094515 54 227 0.0 2.6 0.00 0.00 0.00 64 1009.0
20260505094009 54 234 0.0 2.6 0.00 0.00 0.00 64 1009.0
20260505093503 54 154 0.0 1.7 0.00 0.00 0.00 63 1009.0
20260505093008 54 236 0.0 1.7 0.00 0.00 0.00 63 1009.0
20260505092504 54 186 0.9 2.6 0.00 0.00 0.00 63 1009.0
20260505092007 54 190 0.9 2.6 0.00 0.00 0.00 63 1009.0
20260505091514 54 178 0.0 1.7 0.00 0.00 0.00 64 1008.9
20260505091005 54 196 0.0 1.7 0.00 0.00 0.00 64 1009.0
20260505090507 54 188 0.0 1.7 0.00 0.00 0.00 64 1009.0
20260505090015 54 229 0.0 3.5 0.00 0.00 0.00 64 1009.1
20260505085507 54 180 0.0 3.5 0.00 0.00 0.00 65 1009.0
20260505085011 53 212 0.9 1.7 0.00 0.00 0.00 65 1009.1
20260505084524 53 177 0.0 1.7 0.00 0.00 0.00 66 1009.2
20260505084003 54 185 0.0 4.3 0.00 0.00 0.00 66 1009.0
20260505083509 54 205 0.9 4.3 0.00 0.00 0.00 66 1009.0
20260505083034 54 175 0.9 3.5 0.00 0.00 0.00 64 1009.0
20260505082510 54 157 0.9 3.5 0.00 0.00 0.00 62 1009.0
20260505082008 54 191 0.9 3.5 0.00 0.00 0.00 62 1009.0
20260505081514 54 168 0.0 4.3 0.00 0.00 0.00 63 1009.1
20260505081007 54 169 0.9 9.6 0.00 0.00 0.00 62 1009.2
20260505080507 54 132 0.9 9.6 0.00 0.00 0.00 62 1009.2
20260505080012 54 74 0.9 5.2 0.00 0.00 0.00 63 1009.1
20260505075506 54 120 0.9 3.5 0.00 0.00 0.00 61 1009.0
20260505075006 55 164 0.9 6.1 0.00 0.00 0.00 55 1009.0
20260505074512 56 134 0.9 6.1 0.00 0.00 0.00 54 1009.0
20260505074008 56 109 0.9 6.1 0.00 0.00 0.00 52 1009.0
20260505073507 56 86 0.9 2.6 0.00 0.00 0.00 1009.0
20260505073009 56 201 0.9 8.7 0.00 0.00 0.00 1008.9
20260505072509 56 115 0.0 8.7 0.00 0.00 0.00 1008.9
20260505072009 56 132 0.9 5.2 0.00 0.00 0.00 1008.8
20260505071536 56 197 0.9 4.3 0.00 0.00 0.00 1008.8
20260505071004 56 245 0.9 5.2 0.00 0.00 0.00 50 1008.7
20260505070506 56 113 0.9 9.6 0.00 0.00 0.00 50 1008.7
20260505070011 56 103 1.7 9.6 0.00 0.00 0.00 51 1008.6
20260505065504 56 110 1.7 7.0 0.00 0.00 0.00 51 1008.7
20260505065010 56 111 0.9 10.4 0.00 0.00 0.00 52 1008.5
20260505064515 56 87 0.9 10.4 0.00 0.00 0.00 51 1008.5
20260505064009 56 134 1.7 7.0 0.00 0.00 0.00 52 1008.5
20260505063507 56 150 0.9 7.8 0.00 0.00 0.00 52 1008.4
20260505063029 56 82 0.9 10.4 0.00 0.00 0.00 52 1008.5
20260505062507 56 128 3.5 10.4 0.00 0.00 0.00 52 1008.5
20260505062008 56 257 2.6 10.4 0.00 0.00 0.00 53 1008.4
20260505061521 56 145 1.7 14.8 0.00 0.00 0.00 53 1008.5
20260505061008 56 169 4.3 14.8 0.00 0.00 0.00 54 1008.5
20260505060510 56 163 1.7 16.5 0.00 0.00 0.00 54 1008.6
20260505060014 56 115 2.6 16.5 0.00 0.00 0.00 54 1008.6
20260505055507 56 135 1.7 9.6 0.00 0.00 0.00 54 1008.6
20260505055008 56 107 1.7 9.6 0.00 0.00 0.00 54 1008.7
20260505054535 56 107 1.7 6.1 0.00 0.00 0.00 53 1008.6
20260505054012 56 134 1.7 7.0 0.00 0.00 0.00 1008.5
20260505053512 57 155 1.7 11.3 0.00 0.00 0.00 54 1008.5
20260505053021 57 114 1.7 11.3 0.00 0.00 0.00 54 1008.5
20260505052507 57 99 0.9 5.2 0.00 0.00 0.00 54 1008.7
20260505052009 57 113 0.9 6.1 0.00 0.00 0.00 54 1008.6
20260505051535 58 146 0.9 6.1 0.00 0.00 0.00 52 1008.5
20260505051009 58 126 0.9 12.2 0.00 0.00 0.00 51 1008.6
20260505050508 59 99 2.6 12.2 0.00 0.00 0.00 50 1008.3
20260505041531 61 163 0.9 6.1 0.00 0.00 0.00 41 1007.8
20260505041007 61 180 0.9 6.1 0.00 0.00 0.00 41 1007.8
20260505040509 61 178 0.9 7.8 0.00 0.00 0.00 42 1007.6
20260505040026 61 197 0.9 7.0 0.00 0.00 0.00 42 1007.5
20260505035509 61 181 1.7 7.0 0.00 0.00 0.00 43 1007.4
20260505035014 61 248 0.9 6.1 0.00 0.00 0.00 43 1007.4
20260505034528 61 161 2.6 7.8 0.00 0.00 0.00 43 1007.4
20260505034010 61 180 1.7 6.1 0.00 0.00 0.00 43 1007.4
20260505033509 61 200 2.6 7.8 0.00 0.00 0.00 43 1007.4
20260505033017 61 112 1.7 7.8 0.00 0.00 0.00 43 1007.4
20260505032512 61 179 0.9 7.0 0.00 0.00 0.00 42 1007.3
20260505032008 62 161 0.9 7.8 0.00 0.00 0.00 42 1007.3
20260505031527 62 77 1.7 7.8 0.00 0.00 0.00 41 1007.3
20260505031008 62 197 1.7 4.3 0.00 0.00 0.00 41 1007.3
20260505030508 62 163 1.7 6.1 0.00 0.00 0.00 40 1007.4
20260505030020 63 155 0.9 6.1 0.00 0.00 0.00 40 1007.3
20260505025514 63 183 0.9 5.2 0.00 0.00 0.00 39 1007.2
20260505025008 63 167 0.9 6.1 0.00 0.00 0.00 39 1007.1
20260505024518 63 116 1.7 7.0 0.00 0.00 0.00 39 1006.9
20260505024010 63 88 1.7 7.0 0.00 0.00 0.00 38 1006.9
20260505023508 63 175 0.9 7.0 0.00 0.00 0.00 38 1006.8
20260505023031 63 134 0.9 9.6 0.00 0.00 0.00 39 1006.8
20260505022507 63 130 0.9 9.6 0.00 0.00 0.00 39 1006.8
20260505022010 64 125 0.9 8.7 0.00 0.00 0.00 38 1006.8
20260505021519 64 201 1.7 8.7 0.00 0.00 0.00 37 1006.8
20260505021007 64 136 0.9 7.0 0.00 0.00 0.00 36 1006.8
20260505020509 65 179 0.9 7.0 0.00 0.00 0.00 36 1006.7
20260505020020 65 217 0.9 1.7 0.00 0.00 0.00 35 1006.7
20260505015508 65 184 0.0 1.7 0.00 0.00 0.00 36 1006.7
20260505015008 65 184 0.0 1.7 0.00 0.00 0.00 36 1006.7
20260505014524 65 190 0.0 1.7 0.00 0.00 0.00 35 1006.7
20260505014010 65 184 0.0 1.7 0.00 0.00 0.00 35 1006.8
20260505013509 65 128 0.0 1.7 0.00 0.00 0.00 35 1006.8
20260505013024 65 108 0.0 1.7 0.00 0.00 0.00 35 1006.9
20260505012507 65 108 0.0 1.7 0.00 0.00 0.00 35 1007.0
20260505012008 65 108 0.0 1.7 0.00 0.00 0.00 34 1007.0
20260505011520 65 105 0.0 1.7 0.00 0.00 0.00 34 1007.1
20260505011008 65 101 0.0 1.7 0.00 0.00 0.00 36 1007.1
20260505010508 65 87 0.0 1.7 0.00 0.00 0.00 35 1007.1
20260505010017 65 87 0.0 1.7 0.00 0.00 0.00 35 1007.2
20260505005508 65 75 0.0 1.7 0.00 0.00 0.00 35 1007.3
20260505005009 65 114 0.0 1.7 0.00 0.00 0.00 35 1007.3
20260505004525 65 130 0.9 1.7 0.00 0.00 0.00 35 1007.4
20260505004007 65 117 0.9 2.6 0.00 0.00 0.00 36 1007.4
20260505003504 65 106 1.7 2.6 0.00 0.00 0.00 36 1007.4
20260505003008 66 113 1.7 2.6 0.00 0.00 0.00 36 1007.4
20260505002504 66 124 0.9 6.1 0.00 0.00 0.00 37 1007.4
20260505002004 66 114 1.7 6.1 0.00 0.00 0.00 35 1007.5
20260505001508 66 59 1.7 3.5 0.00 0.00 0.00 35 1007.6
20260505001004 65 106 1.7 3.5 0.00 0.00 0.00 35 1007.6
20260505000504 65 86 1.7 4.3 0.00 0.00 0.00 36 1007.4
20260505000011 65 59 1.7 4.3 0.00 0.00 0.00 35 1007.5
20260504235507 65 98 0.9 3.5 0.00 0.00 0.00 35 1007.6
20260504235007 65 103 0.9 3.5 0.00 0.00 0.00 36 1007.7
20260504234507 65 90 1.7 2.6 0.00 0.00 0.00 36 1007.8
20260504234004 66 142 0.9 3.5 0.00 0.00 0.00 36 1007.8
20260504233505 66 76 1.7 3.5 0.00 0.00 0.00 34 1007.8
20260504233007 68 101 0.9 1.7 0.00 0.00 0.00 32 1007.8
20260504232505 68 148 0.9 2.6 0.00 0.00 0.00 31 1007.8
20260504232007 68 75 0.9 2.6 0.00 0.00 0.00 31 1007.8
20260504231510 68 79 0.9 2.6 0.00 0.00 0.00 31 1007.7
20260504231006 69 146 0.9 3.5 0.00 0.00 0.00 31 1007.6
20260504230507 68 144 1.7 3.5 0.00 0.00 0.00 32 1007.6
20260504230011 67 142 0.9 2.6 0.00 0.00 0.00 33 1007.6
20260504225504 66 107 0.9 3.5 0.00 0.00 0.00 33 1007.7
20260504225007 66 98 1.7 6.1 0.00 0.00 0.00 35 1007.8
20260504224515 67 146 1.7 6.1 0.00 0.00 0.00 34 1007.7
20260504224006 69 143 1.7 3.5 0.00 0.00 0.00 30 1007.7
20260504223509 69 145 0.9 1.7 0.00 0.00 0.00 28 1007.6
20260504223006 69 279 0.0 1.7 0.00 0.00 0.00 28 1007.6
20260504222505 69 281 0.0 1.7 0.00 0.00 0.00 28 1007.5
20260504222009 69 281 0.0 1.7 0.00 0.00 0.00 28 1007.6
20260504221507 68 284 0.0 2.6 0.00 0.00 0.00 28 1007.6
20260504221005 68 256 0.9 3.5 0.00 0.00 0.00 30 1007.6
20260504220507 68 291 0.9 6.1 0.00 0.00 0.00 30 1007.7
20260504220010 68 299 0.9 6.1 0.00 0.00 0.00 31 1007.7
20260504215507 68 297 0.0 2.6 0.00 0.00 0.00 31 1007.7
20260504215007 68 271 0.9 2.6 0.00 0.00 0.00 30 1007.8
20260504214510 68 332 1.7 5.2 0.00 0.00 0.00 30 1007.9
20260504214002 68 287 1.7 6.1 0.00 0.00 0.00 29 1007.9
20260504213503 69 336 0.9 6.1 0.00 0.00 0.00 30 1007.8
20260504213010 69 285 0.9 5.2 0.00 0.00 0.00 30 1007.9
20260504212507 69 270 1.7 6.1 0.00 0.00 0.00 31 1007.9
20260504212003 69 333 0.9 6.1 0.00 0.00 0.00 30 1008.0
20260504211510 69 288 0.9 3.5 0.00 0.00 0.00 31 1008.1
20260504211003 69 321 0.9 4.3 0.00 0.00 0.00 31 1008.2
20260504210504 70 309 1.7 4.3 0.00 0.00 0.00 30 1008.2
20260504210018 70 288 0.9 2.6 0.00 0.00 0.00 30 1008.2
20260504205507 70 320 0.9 2.6 0.00 0.00 0.00 32 1008.2
20260504205007 70 321 0.0 2.6 0.00 0.00 0.00 31 1008.2
20260504204512 69 306 0.0 1.7 0.00 0.00 0.00 33 1008.3
20260504204006 70 306 0.0 3.5 0.00 0.00 0.00 32 1008.3
20260504203506 70 326 0.9 3.5 0.00 0.00 0.00 31 1008.4
20260504203005 70 323 0.9 2.6 0.00 0.00 0.00 31 1008.3
20260504202506 70 48 0.0 2.6 0.00 0.00 0.00 28 1008.4
20260504202007 70 302 0.9 3.5 0.00 0.00 0.00 30 1008.5
20260504201512 70 325 0.0 3.5 0.00 0.00 0.00 30 1008.5
20260504201003 69 268 1.7 3.5 0.00 0.00 0.00 31 1008.5
20260504200507 69 316 0.9 5.2 0.00 0.00 0.00 32 1008.5
20260504200015 69 325 1.7 7.0 0.00 0.00 0.00 31 1008.5
20260504195504 69 342 0.9 7.0 0.00 0.00 0.00 32 1008.5
20260504195007 70 12 0.0 2.6 0.00 0.00 0.00 31 1008.6
20260504194516 70 24 0.9 3.5 0.00 0.00 0.00 32 1008.5
20260504194007 70 69 0.9 4.3 0.00 0.00 0.00 33 1008.6
20260504193511 70 335 0.9 5.2 0.00 0.00 0.00 32 1008.7
20260504193015 70 317 0.9 7.0 0.00 0.00 0.00 33 1008.7
20260504192509 69 348 1.7 7.0 0.00 0.00 0.00 31 1008.7
20260504192008 71 351 2.6 7.8 0.00 0.00 0.00 30 1008.8
20260504191514 72 338 2.6 7.0 0.00 0.00 0.00 31 1008.7
20260504191009 72 352 2.6 7.0 0.00 0.00 0.00 30 1008.8
20260504190510 72 351 2.6 7.0 0.00 0.00 0.00 30 1009.0
20260504190011 72 335 0.9 5.2 0.00 0.00 0.00 30 1009.1
20260504185507 72 296 0.0 5.2 0.00 0.00 0.00 30 1009.1
20260504185005 71 192 0.9 6.1 0.00 0.00 0.00 32 1009.2
20260504184520 70 321 1.7 6.1 0.00 0.00 0.00 31 1009.2
20260504184009 70 5 0.0 1.7 0.00 0.00 0.00 30 1009.2
20260504183506 70 238 0.0 1.7 0.00 0.00 0.00 29 1009.2
20260504183024 70 153 0.0 1.7 0.00 0.00 0.00 31 1009.2
20260504182504 69 127 0.0 1.7 0.00 0.00 0.00 31 1009.3
20260504182009 69 84 0.9 5.2 0.00 0.00 0.00 29 1009.4
20260504181514 70 120 0.0 5.2 0.00 0.00 0.00 29 1009.5
20260504181006 70 173 0.0 1.7 0.00 0.00 0.00 31 1009.5
20260504180504 70 157 0.0 3.5 0.00 0.00 0.00 30 1009.5
20260504180017 70 188 0.9 3.5 0.00 0.00 0.00 30 1009.6
20260504175507 69 148 0.0 2.6 0.00 0.00 0.00 30 1009.7
20260504175004 70 148 0.9 2.6 0.00 0.00 0.00 30 1009.7
20260504174511 69 183 0.0 2.6 0.00 0.00 0.00 32 1009.8
20260504174006 69 139 0.9 2.6 0.00 0.00 0.00 31 1009.8
20260504173512 69 139 0.9 2.6 0.00 0.00 0.00 32 1009.8
20260504173014 69 142 0.9 2.6 0.00 0.00 0.00 33 1009.9
20260504172512 68 134 0.0 2.6 0.00 0.00 0.00 33 1009.9
20260504172011 67 142 0.9 3.5 0.00 0.00 0.00 33 1009.9